Location: Lecco
(45.8566°N, 9.3977°E)
Time: 22:53:03
(UTC+02:00)

S-56A Canister/Altair - Pass Details

Date: 26 July 2019
Orbit: 633 x 2499 km, 38.9° (Epoch: 18 August)

Event Time Altitude Azimuth Distance (km) Brightness Sun altitude
Rises 13:18:15 0° 282° (WNW) 5,935 12.0 63.5°
Reaches altitude 10° 13:22:50 10° 272° (W) 5,066 11.8 63.6°
Maximum altitude 13:34:04 27° 223° (SW) 3,904 11.9 63.6°
Drops below altitude 10° 13:44:56 10° 173° (S) 4,862 12.2 63.4°
Sets 13:49:17 0° 162° (SSE) 5,658 12.3 63.2°
